Volver al catálogo

ASCENT

ActivoCienciaGEO
NORAD 51287·PAYLOAD·🇺🇸 United States

Lanzado Dec 7, 2021 desde Cape Canaveral Space Force Station

Loading…

TLE

ActualizadoSource: Space-Track

Época: Sep 10, 2026, 06:39 UTC

1 51287U 21118E   26253.27752049  .00000027  00000-0  00000-0 0  9999
2 51287   4.3819  76.0903 0008341 122.2288 238.2047  1.01225301 17184

Sigue ASCENT en tiempo real con AllMySat

Download on the App Store